Multibeam Report for CV09_01


Ship Name: Celtic Voyager
Chief Scientist: Sheehan, Kevin
Geological Survey of Ireland
Source Organization: Geological Survey of Ireland (GSI)
Start Date: 2009-03-18
End Date: 2009-03-31


View ISO Metadata

Visit the full NCEI Bathymetry Viewer


Multibeam Bathymetry

Cruise Details

Project: INFOMAR
Instrument: Simrad EM3002

Data Quality

Number of Files: 166
Number of Records: 4433327
BATHYMETRY DATA Quantity Percentage
Number of Beams 1125748752 100%
Number of Good Beams 1113483620 98.91%
Number of Zero Beams 12265132 1.09%
Number of Flagged Beams 0 0%
AMPLITUDE DATA Quantity Percentage
Number of Beams 1125748752 100%
Number of Good Beams 1113483620 98.91%
Number of Zero Beams 12265132 1.09%
Number of Flagged Beams 0 0%
SIDESCAN DATA Quantity Percentage
Number of Pixels 4538544128 100%
Number of Good Pixels 565064651 12.45%
Number of Zero Pixels 0 0%
Number of Flagged Pixels 3973479477 87.55%

Navigation Totals

Total Time: 105.1998 hours
Total Track Length: 1368.0411 km
Average Speed: 13.004 km/hr (7.0216 knots)

Cruise Bounds

Northern Extent: 52.655926
Southern Extent: 52.415943
Western Extent: -10.058937
Eastern Extent: -9.070387

Limits

Minimum Sonar Depth 0 Maximum Sonar Depth 655.31
Minimum Altitude 0 Maximum Altitude 145.88
Minimum Depth 4.72 Maximum Depth 732.58
Minimum Amplitude 0 Maximum Amplitude 16.5
Minimum Sidescan 0 Maximum Sidescan 17

File Information

Full Resolution Bathymetry as collected (raw): 164

Files File Size Description
0001_20090318_192034_Voyager.mb56.gz 84.85MB Simrad multibeam vendor format
0002_20090319_071850_Voyager.mb56.gz 387.15MB Simrad multibeam vendor format
0003_20090319_083520_Voyager.mb56.gz 349.73MB Simrad multibeam vendor format
0004_20090319_094214_Voyager.mb56.gz 309.19MB Simrad multibeam vendor format
0005_20090319_104538_Voyager.mb56.gz 146.86MB Simrad multibeam vendor format
0006_20090319_111609_Voyager.mb56.gz 111.78MB Simrad multibeam vendor format
0007_20090319_114038_Voyager.mb56.gz 202.57MB Simrad multibeam vendor format
0008_20090319_122015_Voyager.mb56.gz 102.30MB Simrad multibeam vendor format
0009_20090319_124216_Voyager.mb56.gz 254.98MB Simrad multibeam vendor format
0010_20090319_141340_Voyager.mb56.gz 335.70MB Simrad multibeam vendor format
0011_20090319_152329_Voyager.mb56.gz 93.95MB Simrad multibeam vendor format
0012_20090319_155852_Voyager.mb56.gz 358.57MB Simrad multibeam vendor format
0013_20090319_170523_Voyager.mb56.gz 113.09MB Simrad multibeam vendor format
0014_20090319_173025_Voyager.mb56.gz 97.70MB Simrad multibeam vendor format
0015_20090319_175037_Voyager.mb56.gz 48.27MB Simrad multibeam vendor format
0016_20090319_180653_Voyager.mb56.gz 507.04MB Simrad multibeam vendor format
0017_20090320_071817_Voyager.mb56.gz 520.67MB Simrad multibeam vendor format
0018_20090320_085921_Voyager.mb56.gz 69.60MB Simrad multibeam vendor format
0019_20090320_095036_Voyager.mb56.gz 529.78MB Simrad multibeam vendor format
0020_20090320_115344_Voyager.mb56.gz 395.32MB Simrad multibeam vendor format
0021_20090320_132744_Voyager.mb56.gz 173.14MB Simrad multibeam vendor format
0022_20090320_141035_Voyager.mb56.gz 154.71MB Simrad multibeam vendor format
0023_20090320_144331_Voyager.mb56.gz 613.69MB Simrad multibeam vendor format
0024_20090320_161822_Voyager.mb56.gz 382.80MB Simrad multibeam vendor format
0025_20090320_175450_Voyager.mb56.gz 303.14MB Simrad multibeam vendor format
0026_20090320_185610_Voyager.mb56.gz 210.93MB Simrad multibeam vendor format
0027_20090320_200535_Voyager.mb56.gz 22.29MB Simrad multibeam vendor format
0028_20090321_000034_Voyager.mb56.gz 182.16MB Simrad multibeam vendor format
0029_20090321_004308_Voyager.mb56.gz 166.24MB Simrad multibeam vendor format
0030_20090321_012302_Voyager.mb56.gz 181.66MB Simrad multibeam vendor format
0031_20090321_020516_Voyager.mb56.gz 161.59MB Simrad multibeam vendor format
0032_20090321_024417_Voyager.mb56.gz 182.16MB Simrad multibeam vendor format
0033_20090321_032634_Voyager.mb56.gz 160.90MB Simrad multibeam vendor format
0034_20090321_040536_Voyager.mb56.gz 182.55MB Simrad multibeam vendor format
0035_20090321_044808_Voyager.mb56.gz 166.71MB Simrad multibeam vendor format
0036_20090321_052820_Voyager.mb56.gz 169.30MB Simrad multibeam vendor format
0037_20090321_060829_Voyager.mb56.gz 751.48MB Simrad multibeam vendor format
0038_20090321_082652_Voyager.mb56.gz 459.02MB Simrad multibeam vendor format
0039_20090321_100118_Voyager.mb56.gz 267.87MB Simrad multibeam vendor format
0040_20090321_105610_Voyager.mb56.gz 258.40MB Simrad multibeam vendor format
0041_20090321_114413_Voyager.mb56.gz 127.90MB Simrad multibeam vendor format
0042_20090321_121109_Voyager.mb56.gz 159.58MB Simrad multibeam vendor format
0043_20090321_124843_Voyager.mb56.gz 187.68MB Simrad multibeam vendor format
0044_20090321_132936_Voyager.mb56.gz 156.23MB Simrad multibeam vendor format
0045_20090321_140519_Voyager.mb56.gz 320.10MB Simrad multibeam vendor format
0046_20090321_151603_Voyager.mb56.gz 97.68MB Simrad multibeam vendor format
0047_20090321_153823_Voyager.mb56.gz 154.96MB Simrad multibeam vendor format
0048_20090321_161311_Voyager.mb56.gz 8.84MB Simrad multibeam vendor format
0049_20090321_162336_Voyager.mb56.gz 55.26MB Simrad multibeam vendor format
0050_20090321_164330_Voyager.mb56.gz 258.39MB Simrad multibeam vendor format
0051_20090321_173837_Voyager.mb56.gz 247.52MB Simrad multibeam vendor format
0052_20090321_182939_Voyager.mb56.gz 312.66MB Simrad multibeam vendor format
0053_20090321_205223_Voyager.mb56.gz 165.03MB Simrad multibeam vendor format
0054_20090321_213611_Voyager.mb56.gz 351.13MB Simrad multibeam vendor format
0055_20090321_230138_Voyager.mb56.gz 335.50MB Simrad multibeam vendor format
0056_20090322_002436_Voyager.mb56.gz 315.08MB Simrad multibeam vendor format
0057_20090322_014245_Voyager.mb56.gz 301.02MB Simrad multibeam vendor format
0058_20090322_025903_Voyager.mb56.gz 316.03MB Simrad multibeam vendor format
0059_20090322_041700_Voyager.mb56.gz 292.61MB Simrad multibeam vendor format
0060_20090322_052918_Voyager.mb56.gz 299.82MB Simrad multibeam vendor format
0061_20090322_072733_Voyager.mb56.gz 505.87MB Simrad multibeam vendor format
0062_20090322_090656_Voyager.mb56.gz 493.64MB Simrad multibeam vendor format
0063_20090322_104303_Voyager.mb56.gz 437.44MB Simrad multibeam vendor format
0064_20090322_121418_Voyager.mb56.gz 407.79MB Simrad multibeam vendor format
0065_20090322_133702_Voyager.mb56.gz 406.54MB Simrad multibeam vendor format
0066_20090322_145924_Voyager.mb56.gz 400.25MB Simrad multibeam vendor format
0067_20090322_161833_Voyager.mb56.gz 409.28MB Simrad multibeam vendor format
0068_20090322_174017_Voyager.mb56.gz 186.19MB Simrad multibeam vendor format
0069_20090322_183210_Voyager.mb56.gz 260.01MB Simrad multibeam vendor format
0070_20090322_201458_Voyager.mb56.gz 292.38MB Simrad multibeam vendor format
0071_20090322_212847_Voyager.mb56.gz 297.33MB Simrad multibeam vendor format
0072_20090322_224359_Voyager.mb56.gz 282.00MB Simrad multibeam vendor format
0073_20090322_235537_Voyager.mb56.gz 293.86MB Simrad multibeam vendor format
0074_20090323_010855_Voyager.mb56.gz 268.63MB Simrad multibeam vendor format
0075_20090323_021730_Voyager.mb56.gz 291.95MB Simrad multibeam vendor format
0076_20090323_033155_Voyager.mb56.gz 271.85MB Simrad multibeam vendor format
0077_20090323_044241_Voyager.mb56.gz 254.82MB Simrad multibeam vendor format
0078_20090323_063723_Voyager.mb56.gz 179.82MB Simrad multibeam vendor format
0079_20090323_071741_Voyager.mb56.gz 443.06MB Simrad multibeam vendor format
0080_20090323_084812_Voyager.mb56.gz 296.75MB Simrad multibeam vendor format
0081_20090323_094956_Voyager.mb56.gz 274.48MB Simrad multibeam vendor format
0082_20090323_105030_Voyager.mb56.gz 426.81MB Simrad multibeam vendor format
0083_20090323_121523_Voyager.mb56.gz 184.12MB Simrad multibeam vendor format
0084_20090323_125337_Voyager.mb56.gz 343.09MB Simrad multibeam vendor format
0085_20090323_140803_Voyager.mb56.gz 15.60MB Simrad multibeam vendor format
0086_20090323_141642_Voyager.mb56.gz 258.54MB Simrad multibeam vendor format
0087_20090323_174656_Voyager.mb56.gz 394.46MB Simrad multibeam vendor format
0088_20090323_190157_Voyager.mb56.gz 153.06MB Simrad multibeam vendor format
0089_20090323_193051_Voyager.mb56.gz 32.06MB Simrad multibeam vendor format
0090a_20090324_073134_Voyager.mb56.gz 201.76MB Simrad multibeam vendor format
0090b_20090324_081502_Voyager.mb56.gz 85.58MB Simrad multibeam vendor format
0091_20090324_083516_Voyager.mb56.gz 28.61MB Simrad multibeam vendor format
0092_20090324_091444_Voyager.mb56.gz 13.43MB Simrad multibeam vendor format
0093_20090324_092413_Voyager.mb56.gz 145.60MB Simrad multibeam vendor format
0094_20090324_095349_Voyager.mb56.gz 67.16MB Simrad multibeam vendor format
0095_20090324_102907_Voyager.mb56.gz 79.01MB Simrad multibeam vendor format
0096_20090324_104803_Voyager.mb56.gz 103.15MB Simrad multibeam vendor format
0097_20090324_111205_Voyager.mb56.gz 115.76MB Simrad multibeam vendor format
0098_20090324_113655_Voyager.mb56.gz 221.15MB Simrad multibeam vendor format
0099_20090324_122152_Voyager.mb56.gz 224.16MB Simrad multibeam vendor format
0100_20090324_130217_Voyager.mb56.gz 210.50MB Simrad multibeam vendor format
0101_20090324_134050_Voyager.mb56.gz 201.19MB Simrad multibeam vendor format
0102_20090324_141621_Voyager.mb56.gz 198.15MB Simrad multibeam vendor format
0103_20090324_145043_Voyager.mb56.gz 375.52MB Simrad multibeam vendor format
0104_20090324_155000_Voyager.mb56.gz 71.09MB Simrad multibeam vendor format
0105B_20090324_162309_Voyager.mb56.gz 100.22MB Simrad multibeam vendor format
0105C_20090324_161740_Voyager.mb56.gz 13.25MB Simrad multibeam vendor format
0105a_20090324_160432_Voyager.mb56.gz 21.29MB Simrad multibeam vendor format
0106_20090324_164635_Voyager.mb56.gz 127.87MB Simrad multibeam vendor format
0106_20090324_171132_Voyager.mb56.gz 4.67MB Simrad multibeam vendor format
0106_20090324_171746_Voyager.mb56.gz 8.34MB Simrad multibeam vendor format
0107_20090324_172752_Voyager.mb56.gz 84.19MB Simrad multibeam vendor format
0108_20090324_174606_Voyager.mb56.gz 126.59MB Simrad multibeam vendor format
0109_20090324_181429_Voyager.mb56.gz 156.32MB Simrad multibeam vendor format
0110_20090324_184742_Voyager.mb56.gz 89.76MB Simrad multibeam vendor format
0111_20090324_190713_Voyager.mb56.gz 62.06MB Simrad multibeam vendor format
0112_20090324_195708_Voyager.mb56.gz 10.28MB Simrad multibeam vendor format
0113_20090325_071508_Voyager.mb56.gz 85.85MB Simrad multibeam vendor format
0114_20090325_074153_Voyager.mb56.gz 105.00MB Simrad multibeam vendor format
0115_20090325_082436_Voyager.mb56.gz 166.58MB Simrad multibeam vendor format
0116_20090325_090250_Voyager.mb56.gz 152.56MB Simrad multibeam vendor format
0117_20090325_094005_Voyager.mb56.gz 169.02MB Simrad multibeam vendor format
0118_20090325_101104_Voyager.mb56.gz 50.93MB Simrad multibeam vendor format
0119_20090325_104020_Voyager.mb56.gz 455.31MB Simrad multibeam vendor format
0120_20090325_120211_Voyager.mb56.gz 378.23MB Simrad multibeam vendor format
0121_20090325_131436_Voyager.mb56.gz 117.02MB Simrad multibeam vendor format
0122a_20090327_122316_Voyager.mb56.gz 31.78MB Simrad multibeam vendor format
0122b_20090327_123449_Voyager.mb56.gz 17.38MB Simrad multibeam vendor format
0123_20090327_131816_Voyager.mb56.gz 352.59MB Simrad multibeam vendor format
0124_20090327_152750_Voyager.mb56.gz 186.34MB Simrad multibeam vendor format
0125_20090327_155656_Voyager.mb56.gz 180.94MB Simrad multibeam vendor format
0126_20090327_162639_Voyager.mb56.gz 177.42MB Simrad multibeam vendor format
0127_20090327_165356_Voyager.mb56.gz 269.46MB Simrad multibeam vendor format
0128_20090327_173534_Voyager.mb56.gz 141.90MB Simrad multibeam vendor format
0129_20090327_180147_Voyager.mb56.gz 43.59MB Simrad multibeam vendor format
0130_20090327_181031_Voyager.mb56.gz 123.32MB Simrad multibeam vendor format
0131_20090327_183306_Voyager.mb56.gz 6.60MB Simrad multibeam vendor format
0132_20090327_184041_Voyager.mb56.gz 13.27MB Simrad multibeam vendor format
0133_20090327_213348_Voyager.mb56.gz 66.40MB Simrad multibeam vendor format
0134_20090327_215204_Voyager.mb56.gz 81.54MB Simrad multibeam vendor format
0135_20090329_115343_Voyager.mb56.gz 15.69MB Simrad multibeam vendor format
0136_20090329_120145_Voyager.mb56.gz 324.95MB Simrad multibeam vendor format
0137_20090329_124354_Voyager.mb56.gz 204.85MB Simrad multibeam vendor format
0138_20090329_131138_Voyager.mb56.gz 219.45MB Simrad multibeam vendor format
0139_20090329_140747_Voyager.mb56.gz 200.19MB Simrad multibeam vendor format
0140_20090329_143810_Voyager.mb56.gz 96.41MB Simrad multibeam vendor format
0141_20090329_145228_Voyager.mb56.gz 213.94MB Simrad multibeam vendor format
0142_20090329_152440_Voyager.mb56.gz 89.48MB Simrad multibeam vendor format
0143_20090329_154142_Voyager.mb56.gz 88.03MB Simrad multibeam vendor format
0144_20090329_155714_Voyager.mb56.gz 85.40MB Simrad multibeam vendor format
0145_20090329_161329_Voyager.mb56.gz 4.72MB Simrad multibeam vendor format
0146_20090329_161624_Voyager.mb56.gz 21.53MB Simrad multibeam vendor format
0147_20090329_162137_Voyager.mb56.gz 11.19MB Simrad multibeam vendor format
0148_20090329_162413_Voyager.mb56.gz 6.27MB Simrad multibeam vendor format
0149_20090329_163115_Voyager.mb56.gz 7.20MB Simrad multibeam vendor format
0150_20090329_163541_Voyager.mb56.gz 5.15MB Simrad multibeam vendor format
0151_20090329_164119_Voyager.mb56.gz 237.63MB Simrad multibeam vendor format
0152_20090329_172015_Voyager.mb56.gz 101.71MB Simrad multibeam vendor format
0153_20090329_173841_Voyager.mb56.gz 108.58MB Simrad multibeam vendor format
0154_20090329_181908_Voyager.mb56.gz 115.79MB Simrad multibeam vendor format
0154a_20090329_175757_Voyager.mb56.gz 112.95MB Simrad multibeam vendor format
0155_20090329_183851_Voyager.mb56.gz 100.24MB Simrad multibeam vendor format
0156_20090329_185816_Voyager.mb56.gz 105.83MB Simrad multibeam vendor format
0157_20090329_191756_Voyager.mb56.gz 147.58MB Simrad multibeam vendor format

Metadata Files: 2

Files File Size Description
CV09_01_Multibeam.xml NGDC created ISO metadata
CV09_01_Survey_Report.pdf 2.40MB PDF metadata file